User: anonymous   Login
Location: Oshawa
(43.9000°N, 78.8670°W)
Time: 21:37:03
(UTC-04:00)
Language:

CZ-4C R/B - Orbit

View from above orbital plane
View from above orbital plane
View from above satellite
View from above satellite

Ground track
Ground track

The orbit data is extracted from the following two-line orbital elements,

1 32290U 07055B   18170.33259354  .00001082  00000-0  31148-4 0  9996
2 32290  97.5574 290.4997 0062546 261.7831  97.6316 15.36366383588160
Epoch (UTC): 19 June 2018 07:58:56
Eccentricity: 0.0062546
inclination: 97.5574°
perigee height: 414 km
apogee height: 499 km
right ascension of ascending node: 290.4997°
argument of perigee: 261.7831°
revolutions per day: 15.36366383
mean anomaly at epoch: 97.6316°
orbit number at epoch: 58816

The dashed part of the orbit path shows where the satellite is in the earth's shadow,  

DLR